Orbital elements:
2021 JU4                                                 Earth MOID = 0.0206 AU
Epoch 2020 Dec. 17.0 TT = JDT 2459200.5                 Veres                   
M 258.38847              (2000.0)            P               Q                  
n   0.68860592     Peri.  185.20187     -0.63902186     +0.74680681             
a   1.2700541      Node    45.24317     -0.69603150     -0.45948728             
e   0.1889817      Incl.   15.03466     -0.32740070     -0.48078168             
P   1.43           H   24.70          G   0.15           U   7                  
Residuals in seconds of arc
210506 G96  0.1+  0.2-    210507 H36  0.3-  0.5-    210508 G96 (0.2+  1.2-)
210506 G96  0.1+  0.5-    210507 G96  0.1+  0.3+    210508 G96 (0.2-  1.3-)
210506 G96  0.2+  0.6+    210507 G96  0.3+  0.1+    210508 G96 (0.2-  1.1-)
210506 G96  0.1-  0.2-    210507 H36  0.6+  0.0     210508 G96 (0.3+  1.2-)
210506 I52  0.6+  0.4-    210507 654  0.3+  0.4+    210508 104  1.0+  0.0
210506 I52  0.2+  0.6-    210507 654  0.2+  0.2+    210508 104  0.1+  0.2-
210506 I52  0.1-  0.2-    210507 734  0.7-  1.0-    210508 104  0.2-  0.4+
210506 J95  1.2-  0.1+    210507 734 (1.6-  2.8-)   210509 H01  0.0   0.0
210506 Y00  0.6-  0.0     210507 734 (2.4-  2.6-)   210509 H01  0.1-  0.0
210506 J95  0.4-  0.5-    210507 654  0.3+  0.3+    210509 858  0.4-  0.2-
210506 Y00  0.4-  0.1+    210507 654  0.2+  0.1+    210509 858  0.0   0.2+
210506 Y00  0.0   0.1-    210507 204  0.1-  0.3+    210509 H01  0.1+  0.2-
210506 Y00  0.4-  0.2-    210507 204 (0.6+  0.6-)   210509 858  0.5-  0.5-
210506 J95  0.8-  0.2+    210507 L01  0.1+  0.1-    210509 H01  0.2+  0.1-
210507 H21  0.1-  0.7+    210507 L01  0.3+  0.5-    210509 G96  0.4+  0.1+
210507 H21  0.1-  0.3+    210507 L01  0.6-  0.3-    210509 G96  0.1+  0.2-
210507 H21  0.1+  0.7+    210507 L01  0.2+  0.5-    210509 G96  0.0   0.3+
210507 734 (2.1-  2.5-)   210507 I93  0.6-  0.2-    210509 G96 (0.9+  0.9+)
210507 734  1.9-  0.7-    210507 I93  0.3-  0.0     210510 G96 (0.4-  1.1-)
210507 734  0.8-  1.0-    210507 Z99  0.8-  0.2-    210510 G96  0.1-  0.7-
210507 I52  0.1-  0.0     210507 Z99  0.7-  0.5-    210510 G96  0.2-  0.2+
210507 I52  0.1+  0.3+    210507 Z99  0.7-  0.4-    210510 G96 (0.7-  1.5-)
210507 I52  0.4+  0.1-    210508 H21  0.1-  0.0     210511 G96  0.2+  1.0+
210507 I52  0.1+  0.2-    210508 H21  0.3-  0.1+    210511 G96 (0.0   1.4+)
210507 G96  0.0   0.0     210508 858  0.4+  0.0     210511 G96  0.0   0.4-
210507 H36  0.1-  0.3-    210508 858  0.1+  0.1+    210511 G96  0.2+  0.5-
210507 G96  0.5+  0.6+    210508 858  0.1+  0.1-

Ephemeris:
2021 JU4                 a,e,i = 1.27, 0.19, 15                  q = 1.0300
Date    TT    R. A. (2000) Decl.     Delta      r    Elong.  Phase     V
2021 04 11    13 25 55.6 +63 08 50   0.1440  1.0570   108.6    64.0    22.9
...
2021 04 26    12 06 27.4 +50 25 30   0.08314 1.0380   110.4    65.3    21.7
...
2021 05 04    11 17 55.3 +28 25 01   0.05750 1.0324   113.3    63.7    20.8
...
2021 05 10    10 42 24.3 -00 50 08   0.05025 1.0303   112.9    64.5    20.6
2021 05 11    10 36 43.3 -06 10 27   0.05059 1.0302   112.2    65.2    20.6
2021 05 12    10 31 07.5 -11 23 52   0.05137 1.0301   111.4    66.0    20.6
...
2021 05 18    09 59 32.7 -36 55 46   0.06397 1.0305   105.6    71.0    21.3
...
2021 05 26    09 23 00.3 -55 12 26   0.09235 1.0340   100.6    74.3    22.2
...
2021 06 10    08 31 07.9 -68 56 34   0.1534  1.0493    98.6    73.0    23.3

M. P. C. Staff               (C) Copyright 2021 MPC           M.P.E.C. 2021-J174




More information about the Iaude mailing list